Find Starlink 32491

NORAD ID: 62043 Int'l Des: 2024-216 Owner: SPXS Country: US Constellation: starlink operational
LEOCIRCULAR

当前视图

正在加载3D地球...

About Starlink 32491

Starlink 32491 (NORAD 62043) is a starlink constellation satellite (v2 mini) launched Nov 21, 2024 by SPXS of US. It operates in LEO, CIRCULAR orbit with a mass of 730.00 kg.

即将过境

Passes for default location (London). Set your location on the main map for personalized predictions.

高度历史

Loading altitude history...

两行轨道根数

1 62043U 24216M 26265.59769626 .00007796 00000-0 29230-3 0 9999
2 62043 42.9972 231.7696 0004327 268.2912 91.7444 15.27601850103907
Epoch: Sep 22, 2026 • Age: 17 hours

当前状态

高度 483.2 km
远地点 / 近地点 N/A
速度 7.63 km/s
星下点 17.04°N, 128.84°E
发射日期 Nov 21, 2024
运行时间 1.8 years
类型 internet

技术详情

分类 Payload
质量 730.00 kg
干质量 700.00 kg
长度 0.30 m
跨度 29.00 m
形状 ? Box + pan
制造商 SPXS
平台类型 Starlink V2M
阶段状态 In Orbit
所有者/国家 SPXS/US

Most Searched